Regional Weather Roundup
Issued by NWS Green Bay, WI

Home | Current Version | Previous Version | Graphics & Text | Print | Product List | Glossary Off
Versions: 1 2 3 4 5 6 7 8 9 10 11 12 13 14 15 16 17 18 19 20 21 22 23 24 25 26 27 28 29 30 31 32 33 34 35 36 37 38 39 40 41 42 43 44 45 46 47 48 49 50

000
ASUS43 KGRB 281311
RWRGRB

NORTH-CENTRAL AND NORTHEAST WISCONSIN REGIONAL WEATHER ROUNDUP
NATIONAL WEATHER SERVICE GREEN BAY WI
800 AM CDT SUN AUG 28 2016

WIZ005-009-010>012-018-019-281400-
NORTH CENTRAL WISCONSIN

CITY           SKY/WX    TMP DP  RH WIND       PRES   REMARKS
IRONWOOD       CLOUDY    61  59  93 W3        30.18S
MANITOWISH WTR CLOUDY    61  61 100 NW3       30.18S
ARBOR VITAE    CLOUDY    63  60  91 CALM      30.19R
EAGLE RIVER    CLOUDY    62  60  94 CALM      30.18S
LAND O LAKES   CLOUDY    63  60  91 CALM      30.20S
RHINELANDER    CLOUDY    62  62 100 SW5       30.20S
PHILLIPS       CLOUDY    61  60  97 CALM      30.20R
ANTIGO         PTSUNNY   61  61  98 CALM      30.20S
TOMAHAWK       CLOUDY    60  59  96 CALM      30.21R
MERRILL        PTSUNNY   62  62  99 W3        30.20S
$$

WIZ013-073-281400-
NORTHEAST WISCONSIN

CITY           SKY/WX    TMP DP  RH WIND       PRES   REMARKS
IRON MOUNTAIN  SUNNY     65  59  81 NW6       30.16R
MARINETTE        N/A    N/A N/A N/A MISG        N/A
OCONTO         CLOUDY    63  62  98 SW3       30.18R VSB 1
$$

WIZ017-030-035>037-045-281400-
CENTRAL WISCONSIN

CITY           SKY/WX    TMP DP  RH WIND       PRES   REMARKS
MEDFORD        PTSUNNY   61  61 100 N3        30.20R
WAUSAU         SUNNY     63  60  90 W3        30.18S
MOSINEE        PTSUNNY   61  61 100 N7        30.21R FOG
MARSHFIELD     SUNNY     64  61  90 N3        30.19R
WISC RAPIDS    PTSUNNY   66  63  90 SW3       30.21R
STEVENS POINT  FOG       60  60 100 CALM      30.20R VSB 3/4
WAUPACA        SUNNY     67  66  97 CALM      30.20R
SHAWANO        PTSUNNY   65  63  95 CALM      30.20R FOG
CLINTONVILLE   FOG       61  61 100 CALM      30.20R VSB 1/4
WAUTOMA        NOT AVBL
$$

WIZ038-039-048-051-281400-
FOX VALLEY

CITY           SKY/WX    TMP DP  RH WIND       PRES   REMARKS
NWS GREEN BAY  CLOUDY    63  63 100 W3        30.19R FOG
APPLETON       MOSUNNY   64  64 100 W3        30.18S
OSHKOSH        MOSUNNY   66  64  93 W3        30.20R
FOND DU LAC    CLOUDY    66  63  90 CALM      30.20R
$$

WIZ022-050-052-281400-
EAST CENTRAL WISCONSIN

CITY           SKY/WX    TMP DP  RH WIND       PRES   REMARKS
EPHRAIM        CLOUDY    66  64  94 W8        30.17R
WASHINGTON ISL NOT AVBL
STURGEON BAY   CLOUDY    65  64  97 SW6       30.19R
MANITOWOC      SUNNY     67  64  90 MISG      30.20R
SHEBOYGAN      MOSUNNY   66  64  93 CALM      30.20R
$$

LMZ563-521-522-541>543-281400-
LAKESHORE

STATION/POSITION TIME  TEMP    WIND        PRES    VSBY  WAVE
                       AIR SEA DIR/SP/G                  HT/PER
                 (UTC) (F)     (DEG/KT/KT) (MB)    (MI)  (FT/S)
SHEBOYGAN LKSHOR 1300   65     300/  3/  4 1022.3R
KEWAUNEE LKSHORE 1200          190/  2/  4 1021.2R
NORTHPORT PIER   1200   68     270/  4/  7 1020.7R
N MID LAKE BUOY  1250   67 70  250/ 12/ 14 1020.6R         1/ 3
S GREEN BAY BUOY 1200   66 71  250/  8/ 10 1021.1
SISTER BAY LKSHO 1237   72     300/ 13/ 15   N/A
CHAMBERS ISLAND  1200   66     220/  7/ 10 1021.0R
MENOMINEE LKSHOR 1200          250/  4/  7 1020.5R
$$



USA.gov is the U.S. government's official web portal to all federal, state and local government web resources and services.